EW4337 Weather Reports


Display with metric or nautical units.
time (UTC)temp
F
wind
direction
speed
MPH
gust
MPH
rain 1hr
in
rain 24hr
in
rain mn
in
humidity
%
barometer
mb
20180423190704 53 238 0.0 3.0 0.00 0.00 0.00 73 1015.2
20180423185704 53 244 0.0 3.0 0.00 0.00 0.00 73 1015.3
20180423184704 53 258 3.0 7.0 0.00 0.00 0.00 72 1015.2
20180423183705 54 244 2.0 6.0 0.00 0.00 0.00 71 1015.3
20180423182704 54 253 5.0 12.0 0.00 0.00 0.00 71 1015.4
20180423181704 54 242 5.0 9.0 0.00 0.00 0.00 70 1015.4
20180423180704 54 276 5.0 12.0 0.00 0.00 0.00 69 1015.3
20180423175704 55 249 6.0 12.0 0.00 0.00 0.00 68 1015.2
20180423174705 55 254 6.0 12.0 0.00 0.00 0.00 67 1015.2
20180423173708 55 293 6.0 12.0 0.00 0.00 0.00 66 1015.1
20180423172705 56 274 3.0 10.0 0.00 0.00 0.00 68 1015.2
20180423171705 56 294 4.0 13.0 0.00 0.00 0.00 68 1015.3
20180423170704 56 294 6.0 15.0 0.00 0.00 0.00 67 1015.4
20180423165705 56 243 7.0 14.0 0.00 0.00 0.00 66 1015.5
20180423164705 57 294 8.0 14.0 0.00 0.00 0.00 66 1015.5
20180423163705 57 273 5.0 14.0 0.00 0.00 0.00 67 1015.5
20180423162704 57 299 7.0 13.0 0.00 0.00 0.00 67 1015.6
20180423161704 57 292 6.0 13.0 0.00 0.00 0.00 66 1015.6
20180423160705 58 301 8.0 14.0 0.00 0.00 0.00 66 1015.6
20180423155704 58 296 7.0 15.0 0.00 0.00 0.00 65 1015.7
20180423154705 58 250 11.0 17.0 0.00 0.00 0.00 62 1015.6
20180423153704 59 308 9.0 16.0 0.00 0.00 0.00 63 1015.5
20180423152704 58 263 9.0 18.0 0.00 0.00 0.00 65 1015.6
20180423151704 59 285 9.0 16.0 0.00 0.00 0.00 64 1015.5
20180423150704 59 262 11.0 17.0 0.00 0.00 0.00 64 1015.5
20180423145705 60 288 10.0 18.0 0.00 0.00 0.00 62 1015.4
20180423144704 61 287 10.0 20.0 0.00 0.00 0.00 63 1015.3
20180423143705 60 255 10.0 20.0 0.00 0.00 0.00 63 1015.3
20180423142705 60 307 7.0 20.0 0.00 0.00 0.00 61 1015.2
20180423141704 60 255 7.0 16.0 0.00 0.00 0.00 63 1015.1
20180423140704 61 248 12.0 20.0 0.00 0.00 0.00 62 1015.1
20180423135704 61 248 10.0 18.0 0.00 0.00 0.00 61 1015.2
20180423134704 60 274 9.0 20.0 0.00 0.00 0.00 62 1015.1
20180423133705 60 281 9.0 18.0 0.00 0.00 0.00 63 1015.2
20180423132704 60 284 5.0 20.0 0.00 0.00 0.00 65 1015.1
20180423131705 60 247 6.0 20.0 0.00 0.00 0.00 63 1015.0
20180423130704 60 241 12.0 20.0 0.00 0.00 0.00 62 1015.0
20180423125705 61 266 7.0 20.0 0.00 0.00 0.00 62 1015.1
20180423124704 60 293 9.0 17.0 0.00 0.00 0.00 63 1015.0
20180423123704 60 272 10.0 17.0 0.00 0.00 0.00 62 1014.7
20180423122704 61 272 11.0 20.0 0.00 0.00 0.00 60 1014.8
20180423121705 61 253 10.0 20.0 0.00 0.00 0.00 60 1014.9
20180423120704 61 283 13.0 24.0 0.00 0.00 0.00 58 1014.8
20180423115704 63 233 9.0 20.0 0.00 0.00 0.00 60 1014.7
20180423114705 61 175 10.0 20.0 0.00 0.00 0.00 62 1014.6
20180423113705 62 229 12.0 24.0 0.00 0.00 0.00 61 1014.6
20180423112706 61 268 9.0 17.0 0.00 0.00 0.00 64 1014.5
20180423111704 59 265 9.0 13.0 0.00 0.00 0.00 68 1014.5
20180422220704 58 226 0.0 0.0 0.00 0.16 0.00 93 1009.1
20180422215704 58 227 0.0 0.0 0.00 0.16 0.16 93 1009.0
20180422214704 58 222 0.0 3.0 0.00 0.16 0.16 93 1009.1
20180422213705 58 222 0.0 5.0 0.00 0.16 0.16 94 1009.0
20180422212705 58 243 1.0 8.0 0.00 0.16 0.16 94 1009.2
20180422211705 58 232 0.0 6.0 0.00 0.16 0.16 95 1009.0
20180422210705 59 220 0.0 3.0 0.00 0.16 0.16 95 1009.0
20180422205704 59 193 0.0 5.0 0.00 0.16 0.16 95 1009.1
20180422204703 59 184 1.0 5.0 0.00 0.16 0.16 95 1009.2
20180422203704 60 199 0.0 0.0 0.00 0.16 0.16 94 1009.4
20180422202703 60 200 1.0 3.0 0.00 0.16 0.16 94 1009.4
20180422201704 61 198 0.0 0.0 0.00 0.16 0.16 94 1009.5
20180422200704 61 174 0.0 0.0 0.00 0.16 0.16 94 1009.5
20180422195703 61 175 0.0 3.0 0.00 0.16 0.16 94 1009.5
20180422194704 62 195 0.0 2.0 0.00 0.16 0.16 94 1009.4
20180422193704 62 195 0.0 0.0 0.00 0.16 0.16 94 1009.5
20180422192704 63 195 0.0 0.0 0.00 0.16 0.16 93 1009.4
20180422191704 63 242 0.0 0.0 0.00 0.16 0.16 93 1009.3